When you browse on this site, cookies collect data to enhance your experience and personalize the content and advertising you see.
Visit our Privacy Policy to learn more. By continuing to use the site, you agree to this use of cookies and data.
  • In Spain
  • List of Countries
  • For 7 days
  • Water Temperature
  • Satellite Maps
  • Weather Map
  • Weather Widgets
  • user-avatar
    Login

    Hourly Weather Damascus

    Today, 21 May, Tuesday

    Time Temperature Precipitation Wind Pressure Humidity
    00:00 +26°C° 0 mm 1 mps 700 mmHg 29%
    01:00 +25°C° 0 mm 1 mps 700 mmHg 30%
    02:00 +25°C° 0 mm 2 mps 700 mmHg 29%
    03:00 +25°C° 0 mm 2 mps 700 mmHg 30%
    04:00 +24°C° 0 mm 1 mps 700 mmHg 31%
    05:00 +24°C° 0 mm 1 mps 700 mmHg 32%
    06:00 +26°C° 0 mm 1 mps 701 mmHg 28%
    07:00 +28°C° 0 mm 2 mps 701 mmHg 23%
    08:00 +30°C° 0 mm 2 mps 701 mmHg 18%
    09:00 +31°C° 0 mm 2 mps 702 mmHg 16%
    10:00 +34°C° 0 mm 3 mps 702 mmHg 14%
    11:00 +35°C° 0 mm 4 mps 702 mmHg 12%
    12:00 +36°C° 0 mm 4 mps 702 mmHg 12%
    13:00 +36°C° 0 mm 5 mps 702 mmHg 12%
    14:00 +36°C° 0 mm 5 mps 702 mmHg 13%
    15:00 +36°C° 0 mm 5 mps 702 mmHg 13%
    16:00 +35°C° 0 mm 5 mps 702 mmHg 13%
    17:00 +35°C° 0 mm 6 mps 702 mmHg 13%
    18:00 +33°C° 0 mm 5 mps 701 mmHg 15%
    19:00 +32°C° 0 mm 4 mps 701 mmHg 17%
    20:00 +29°C° 0 mm 3 mps 701 mmHg 19%
    21:00 +29°C° 0 mm 3 mps 701 mmHg 18%
    22:00 +28°C° 0 mm 3 mps 701 mmHg 17%
    23:00 +28°C° 0 mm 3 mps 702 mmHg 16%

    Tomorrow, 22 May, Wednesday

    Time Temperature Precipitation Wind Pressure Humidity
    00:00 +27°C° 0 mm 3 mps 701 mmHg 17%
    01:00 +27°C° 0 mm 2 mps 701 mmHg 17%
    02:00 +26°C° 0 mm 2 mps 701 mmHg 17%
    03:00 +26°C° 0 mm 2 mps 701 mmHg 18%
    04:00 +26°C° 0 mm 2 mps 701 mmHg 19%
    05:00 +26°C° 0 mm 2 mps 701 mmHg 20%
    06:00 +28°C° 0 mm 2 mps 701 mmHg 18%
    07:00 +30°C° 0 mm 2 mps 702 mmHg 16%
    08:00 +32°C° 0 mm 2 mps 702 mmHg 14%
    09:00 +35°C° 0 mm 4 mps 702 mmHg 13%
    10:00 +36°C° 0 mm 6 mps 702 mmHg 11%
    11:00 +38°C° 0 mm 8 mps 703 mmHg 10%
    12:00 +38°C° 0 mm 8 mps 702 mmHg 10%
    13:00 +38°C° 0 mm 8 mps 702 mmHg 10%
    14:00 +38°C° 0 mm 9 mps 702 mmHg 11%
    15:00 +38°C° 0 mm 8 mps 702 mmHg 11%
    16:00 +36°C° 0 mm 7 mps 702 mmHg 12%
    17:00 +35°C° 0 mm 7 mps 701 mmHg 13%
    18:00 +34°C° 0 mm 6 mps 701 mmHg 15%
    19:00 +32°C° 0 mm 5 mps 701 mmHg 16%
    20:00 +30°C° 0 mm 4 mps 701 mmHg 18%
    21:00 +29°C° 0 mm 3 mps 701 mmHg 18%
    22:00 +29°C° 0 mm 3 mps 701 mmHg 18%
    23:00 +28°C° 0 mm 3 mps 701 mmHg 19%

    Day after tomorrow, 23 May, Thursday

    Time Temperature Precipitation Wind Pressure Humidity
    00:00 +27°C° 0 mm 3 mps 701 mmHg 20%
    01:00 +27°C° 0 mm 3 mps 700 mmHg 20%
    02:00 +26°C° 0 mm 2 mps 700 mmHg 21%
    03:00 +26°C° 0 mm 2 mps 700 mmHg 23%
    04:00 +26°C° 0 mm 2 mps 700 mmHg 24%
    05:00 +26°C° 0 mm 2 mps 699 mmHg 25%
    06:00 +28°C° 0 mm 1 mps 700 mmHg 22%
    07:00 +30°C° 0 mm 1 mps 700 mmHg 19%
    08:00 +32°C° 0 mm 1 mps 701 mmHg 16%
    09:00 +34°C° 0 mm 1 mps 701 mmHg 15%
    10:00 +35°C° 0 mm 1 mps 701 mmHg 14%
    11:00 +36°C° 0 mm 1 mps 701 mmHg 12%
    12:00 +37°C° 0 mm 1 mps 701 mmHg 12%
    13:00 +37°C° 0 mm 1 mps 700 mmHg 12%
    14:00 +39°C° 0 mm 1 mps 700 mmHg 11%
    15:00 +38°C° 0 mm 2 mps 700 mmHg 11%
    16:00 +38°C° 0 mm 2 mps 700 mmHg 12%
    17:00 +38°C° 0 mm 2 mps 699 mmHg 12%
    18:00 +37°C° 0 mm 2 mps 699 mmHg 14%
    19:00 +35°C° 0 mm 2 mps 699 mmHg 16%
    20:00 +33°C° 0 mm 1 mps 699 mmHg 18%
    21:00 +32°C° 0 mm 1 mps 699 mmHg 19%
    22:00 +31°C° 0 mm 1 mps 699 mmHg 19%
    23:00 +30°C° 0 mm 1 mps 699 mmHg 19%

    24 May, Friday

    Time Temperature Precipitation Wind Pressure Humidity
    00:00 +30°C° 0 mm 1 mps 698 mmHg 20%
    01:00 +29°C° 0 mm 1 mps 698 mmHg 21%
    02:00 +28°C° 0 mm 1 mps 697 mmHg 22%
    03:00 +28°C° 0 mm 1 mps 697 mmHg 23%
    04:00 +27°C° 0 mm 1 mps 697 mmHg 24%
    05:00 +27°C° 0 mm 1 mps 697 mmHg 25%
    06:00 +29°C° 0 mm 1 mps 697 mmHg 22%
    07:00 +31°C° 0 mm 2 mps 698 mmHg 19%
    08:00 +32°C° 0 mm 2 mps 698 mmHg 16%
    09:00 +35°C° 0 mm 2 mps 698 mmHg 14%
    10:00 +37°C° 0 mm 3 mps 698 mmHg 12%
    11:00 +40°C° 0 mm 4 mps 699 mmHg 10%
    12:00 +40°C° 0 mm 5 mps 698 mmHg 9%
    13:00 +41°C° 0 mm 5 mps 698 mmHg 8%
    14:00 +42°C° 0 mm 6 mps 698 mmHg 7%
    15:00 +41°C° 0 mm 6 mps 698 mmHg 8%
    16:00 +41°C° 0 mm 6 mps 698 mmHg 9%
    17:00 +40°C° 0 mm 5 mps 697 mmHg 10%
    18:00 +38°C° 0 mm 4 mps 697 mmHg 12%
    19:00 +36°C° 0 mm 2 mps 697 mmHg 14%
    20:00 +33°C° 0 mm 1 mps 697 mmHg 17%
    21:00 +33°C° 0 mm 1 mps 697 mmHg 17%
    22:00 +32°C° 0 mm 1 mps 697 mmHg 17%
    23:00 +32°C° 0 mm 1 mps 697 mmHg 16%

    25 May, Saturday

    Time Temperature Precipitation Wind Pressure Humidity
    00:00 +31°C° 0 mm 1 mps 697 mmHg 16%
    01:00 +31°C° 0 mm 2 mps 697 mmHg 16%
    02:00 +30°C° 0 mm 2 mps 697 mmHg 15%
    03:00 +29°C° 0 mm 2 mps 697 mmHg 16%
    04:00 +29°C° 0 mm 2 mps 697 mmHg 16%
    05:00 +28°C° 0 mm 2 mps 697 mmHg 17%
    06:00 +30°C° 0 mm 3 mps 698 mmHg 15%
    07:00 +34°C° 0 mm 4 mps 698 mmHg 13%
    08:00 +36°C° 0 mm 4 mps 699 mmHg 11%
    09:00 +37°C° 0 mm 5 mps 699 mmHg 11%
    10:00 +38°C° 0 mm 6 mps 700 mmHg 11%
    11:00 +39°C° 0 mm 7 mps 700 mmHg 11%
    12:00 +39°C° 0 mm 7 mps 700 mmHg 12%
    13:00 +39°C° 0 mm 7 mps 699 mmHg 12%
    14:00 +40°C° 0 mm 7 mps 699 mmHg 12%
    15:00 +39°C° 0 mm 7 mps 699 mmHg 14%
    16:00 +38°C° 0 mm 6 mps 699 mmHg 15%
    17:00 +36°C° 0 mm 6 mps 699 mmHg 17%
    18:00 +34°C° 0 mm 5 mps 699 mmHg 21%
    19:00 +32°C° 0 mm 4 mps 699 mmHg 25%
    20:00 +29°C° 0 mm 3 mps 699 mmHg 29%
    21:00 +29°C° 0 mm 3 mps 699 mmHg 30%
    22:00 +28°C° 0 mm 3 mps 699 mmHg 32%
    23:00 +27°C° 0 mm 3 mps 698 mmHg 33%

    26 May, Sunday

    Time Temperature Precipitation Wind Pressure Humidity
    00:00 +26°C° 0 mm 3 mps 698 mmHg 33%
    01:00 +26°C° 0 mm 3 mps 698 mmHg 34%
    02:00 +25°C° 0 mm 3 mps 698 mmHg 35%
    03:00 +24°C° 0 mm 3 mps 698 mmHg 35%
    04:00 +24°C° 0 mm 3 mps 698 mmHg 35%
    05:00 +23°C° 0 mm 2 mps 698 mmHg 35%
    06:00 +25°C° 0 mm 3 mps 698 mmHg 27%
    07:00 +27°C° 0 mm 3 mps 699 mmHg 20%
    08:00 +28°C° 0 mm 3 mps 699 mmHg 13%
    09:00 +30°C° 0 mm 4 mps 699 mmHg 11%
    10:00 +33°C° 0 mm 4 mps 699 mmHg 8%
    11:00 +34°C° 0 mm 5 mps 699 mmHg 6%
    12:00 +35°C° 0 mm 5 mps 699 mmHg 6%
    13:00 +35°C° 0 mm 5 mps 699 mmHg 6%
    14:00 +36°C° 0 mm 6 mps 699 mmHg 6%
    15:00 +35°C° 0 mm 5 mps 698 mmHg 6%
    16:00 +35°C° 0 mm 5 mps 698 mmHg 7%
    17:00 +34°C° 0 mm 5 mps 698 mmHg 7%
    18:00 +32°C° 0 mm 4 mps 698 mmHg 11%
    19:00 +29°C° 0 mm 3 mps 698 mmHg 16%
    20:00 +27°C° 0 mm 3 mps 698 mmHg 20%
    21:00 +26°C° 0 mm 2 mps 698 mmHg 21%
    22:00 +25°C° 0 mm 2 mps 698 mmHg 23%
    23:00 +24°C° 0 mm 1 mps 697 mmHg 24%
    Show more